Wind_Speed
17 19 19 19 19 20 22 22 22 23 24 25 26 26 27 28 28 29 30 32 32 33 33 34 35 35 35 36 36 36 36 35 36 36 36 36 37 37
18 19 19 19 20 20 21 22 22 23 24 25 26 26 26 27 28 29 30 31 31 32 33 34 34 34 35 36 36 36 37 37 36 37 37 37 38 38
17 18 19 19 19 19 20 21 22 22 24 24 25 25 26 27 28 28 29 29 29 30 31 31 32 33 34 34 35 35 36 36 37 38 38 38 38 39
17 18 19 19 19 19 20 20 21 22 23 24 25 25 25 26 26 27 27 28 28 29 29 30 31 32 32 34 35 35 35 36 37 38 39 39 39 40
16 18 18 18 18 18 19 20 21 22 23 24 24 24 24 25 25 26 27 28 29 30 30 30 30 30 31 32 34 36 36 36 38 39 39 40 41 41
16 16 16 17 18 18 19 20 21 22 22 23 23 23 23 24 25 26 27 27 28 29 30 30 30 30 31 32 33 33 35 36 37 39 40 41 42 42
16 15 15 17 18 18 19 20 21 22 22 22 22 22 23 23 24 25 25 26 27 28 28 29 30 30 31 31 31 32 33 34 36 37 39 40 41 41
14 14 15 17 18 19 20 21 22 22 22 22 22 23 24 24 25 25 25 25 26 26 27 27 28 28 29 30 30 31 32 32 33 35 37 38 40 41
14 15 16 17 18 19 21 21 22 22 22 23 22 22 23 24 25 25 25 26 26 26 25 25 26 26 27 28 30 31 32 33 33 34 35 37 38 40
16 16 17 17 18 20 21 21 21 22 22 22 23 23 23 23 24 24 24 24 24 25 24 24 24 24 25 26 28 30 31 31 32 33 33 35 37 38
16 16 17 18 18 19 20 21 22 22 22 22 22 23 23 23 24 24 24 24 23 23 23 22 22 23 23 24 25 27 28 30 31 31 32 33 34 35
17 16 16 17 18 19 20 21 22 22 22 22 22 23 23 23 23 23 24 24 23 23 23 23 23 23 22 23 25 25 26 28 29 29 30 31 32 33
17 16 17 18 18 19 20 21 22 22 22 23 23 23 22 22 23 23 23 23 23 23 23 23 23 23 22 22 23 24 25 26 27 28 28 29 30 31
17 17 18 18 18 19 20 21 22 22 23 22 21 21 21 22 23 23 22 22 22 22 23 22 22 23 22 22 22 23 24 25 25 26 27 28 29 30
17 18 18 19 19 20 21 21 22 22 22 21 20 20 20 21 22 22 22 22 23 23 23 22 22 22 22 22 22 22 23 23 24 24 25 26 27 28
17 18 19 19 20 20 21 22 22 22 21 20 20 20 20 21 21 21 22 22 23 22 22 22 22 22 22 22 22 22 21 21 21 21 22 23 24 26
18 19 19 20 20 20 21 21 21 21 21 20 20 20 21 21 21 22 22 22 22 22 21 22 22 21 22 22 22 21 20 20 20 19 19 20 22 23
18 19 19 19 20 20 20 21 21 20 20 20 20 20 21 21 22 22 22 22 22 22 22 22 22 21 21 21 22 21 20 19 18 18 19 20 21 21
18 19 19 19 19 20 21 21 20 20 19 20 20 21 21 21 22 22 22 22 22 22 22 22 21 21 21 21 22 21 20 18 17 18 18 19 20 20
18 18 18 18 18 19 20 21 20 19 19 20 21 21 21 22 22 22 23 23 22 22 22 21 21 21 21 21 21 20 19 18 17 17 17 18 18 19
18 18 17 18 18 19 20 20 20 20 20 21 21 21 21 22 22 23 22 22 21 21 21 21 21 21 21 20 20 19 19 18 17 17 17 17 17 18
18 18 18 18 20 20 19 20 20 21 21 21 22 22 22 22 22 22 22 22 22 21 21 21 21 22 21 21 20 19 19 18 18 18 17 17 18 17
17 18 18 19 20 20 20 20 20 21 21 22 22 23 22 22 22 21 21 21 21 21 21 21 22 22 21 21 20 19 19 19 18 17 17 18 18 17
Wind_Direction
282 282 286 287 289 291 291 292 291 289 290 292 290 287 285 284 281 277 277 276 275 273 270 269 267 266 264 263 262 259 257 256 256 254 253 251 250 249
284 284 288 291 292 293 293 292 293 293 292 293 293 291 289 288 284 280 280 279 276 274 273 272 270 268 266 264 262 259 257 255 255 254 252 251 250 249
285 288 291 293 292 293 293 293 295 296 296 296 294 292 291 290 288 285 283 284 282 279 278 275 273 271 268 264 263 261 258 256 255 253 251 251 251 251
289 292 293 292 293 293 294 295 297 299 299 299 297 293 290 290 290 288 287 286 285 282 280 276 275 272 268 266 264 262 260 257 255 253 252 251 251 250
295 296 294 295 297 297 298 299 301 301 301 301 299 297 295 294 293 291 290 290 288 285 281 280 278 275 271 268 265 262 261 259 257 255 254 253 252 251
301 300 299 299 300 300 302 303 303 303 303 303 302 300 299 296 294 293 293 292 289 287 284 282 279 275 273 271 268 264 261 259 258 255 254 253 253 252
305 303 302 303 303 304 305 306 305 304 305 305 302 302 302 300 298 298 297 295 293 291 287 284 281 278 274 271 269 266 264 262 260 256 254 253 252 252
310 306 304 304 304 305 306 307 306 306 306 306 305 304 304 304 303 302 303 300 297 294 291 289 286 283 279 276 272 269 267 265 263 259 256 255 253 253
315 310 308 306 305 308 307 308 308 309 308 307 307 307 306 306 306 305 304 303 301 299 296 293 290 287 282 277 274 272 269 268 266 263 260 257 255 254
315 311 308 308 309 310 309 309 310 311 309 308 308 308 309 309 309 309 309 308 305 303 300 298 295 291 288 284 279 275 272 270 268 266 263 261 258 256
315 313 312 311 312 313 314 315 315 313 312 310 310 310 311 312 311 311 311 313 311 308 305 302 301 298 294 290 286 279 275 272 270 268 265 262 261 259
319 316 316 316 315 315 317 319 318 316 315 314 314 315 314 314 314 314 313 313 314 311 308 306 305 303 299 294 291 285 279 275 273 270 267 264 263 262
322 319 318 318 317 316 317 319 320 319 316 315 315 316 317 317 318 318 317 316 316 315 312 309 307 306 303 299 296 292 286 280 275 272 269 266 265 263
327 324 322 321 320 321 320 321 321 323 321 319 318 318 318 319 321 322 322 321 320 319 316 312 310 309 307 304 300 296 292 287 281 276 271 267 266 265
328 327 325 325 324 323 322 321 322 323 325 324 321 319 319 321 323 324 323 323 323 321 319 317 315 313 311 309 305 301 297 292 285 280 275 269 267 265
330 330 330 327 326 325 325 325 325 325 326 326 325 323 323 323 323 324 325 325 324 322 321 320 318 316 315 315 312 309 303 297 292 285 280 276 272 271
330 331 331 332 332 330 329 330 329 329 330 329 328 325 324 325 325 326 326 327 327 326 325 323 322 320 320 320 319 316 309 303 298 291 286 282 278 276
328 331 332 332 333 334 334 334 334 333 332 331 332 330 327 327 328 328 329 329 329 328 327 326 324 323 321 321 321 319 313 308 303 298 294 287 281 278
329 329 332 333 334 335 336 336 335 335 335 334 334 333 331 330 330 330 330 330 331 331 331 330 328 326 324 324 324 321 317 312 308 305 300 294 289 284
329 330 332 334 336 338 338 337 337 337 337 337 337 335 334 334 333 333 332 330 332 333 334 333 333 332 330 329 329 326 322 317 313 311 307 302 298 292
327 328 330 333 335 335 336 337 339 339 337 337 337 337 335 334 334 335 335 335 335 336 337 336 336 337 336 334 332 330 327 323 320 320 316 311 305 299
326 327 330 331 333 334 335 336 337 339 338 338 337 336 335 335 335 336 338 338 338 339 340 340 339 339 338 338 337 335 332 328 326 326 326 323 319 312
327 329 331 332 333 335 335 336 338 338 339 339 338 337 337 336 335 336 337 339 340 341 342 342 342 341 340 340 339 338 335 332 330 330 330 329 328 325
Height
5777 5776 5774 5772 5771 5769 5767 5765 5764 5761 5759 5757 5753 5751 5748 5746 5743 5741 5739 5737 5735 5733 5731 5730 5729 5729 5728 5728 5729 5729 5730 5731 5732 5734 5735 5737 5739 5741
5772 5770 5768 5767 5765 5763 5760 5759 5756 5754 5752 5749 5745 5742 5739 5736 5734 5731 5729 5727 5725 5723 5721 5719 5718 5717 5717 5717 5717 5718 5719 5720 5722 5723 5725 5726 5729 5731
5766 5764 5763 5760 5758 5756 5754 5752 5749 5747 5744 5741 5737 5734 5731 5727 5724 5722 5719 5717 5715 5713 5711 5709 5707 5706 5706 5706 5706 5707 5708 5709 5710 5712 5714 5716 5718 5721
5761 5759 5757 5754 5752 5750 5748 5745 5742 5739 5737 5733 5730 5726 5723 5719 5716 5713 5710 5708 5705 5703 5701 5699 5697 5696 5695 5695 5695 5696 5696 5697 5699 5701 5703 5705 5707 5709
5756 5754 5751 5749 5747 5744 5742 5739 5736 5732 5729 5726 5722 5718 5715 5711 5708 5705 5702 5699 5697 5694 5691 5689 5687 5685 5685 5684 5684 5685 5685 5686 5688 5689 5690 5693 5695 5697
5751 5749 5746 5744 5741 5739 5736 5733 5729 5726 5722 5718 5715 5711 5708 5704 5701 5698 5695 5691 5688 5685 5682 5679 5677 5676 5675 5674 5674 5674 5674 5674 5675 5677 5679 5681 5683 5685
5746 5743 5741 5739 5736 5733 5730 5727 5723 5720 5716 5712 5708 5705 5701 5698 5694 5691 5687 5683 5680 5676 5673 5670 5668 5667 5665 5664 5663 5663 5663 5663 5663 5665 5666 5668 5670 5672
5742 5739 5736 5734 5731 5727 5724 5721 5717 5714 5710 5706 5702 5698 5694 5691 5687 5683 5679 5676 5673 5669 5665 5662 5659 5657 5655 5654 5653 5653 5652 5652 5653 5653 5654 5656 5658 5660
5737 5734 5731 5728 5726 5722 5719 5715 5711 5707 5704 5700 5696 5692 5688 5684 5681 5677 5672 5668 5664 5660 5657 5654 5651 5649 5646 5645 5643 5642 5642 5642 5642 5642 5643 5644 5646 5647
5733 5730 5727 5724 5721 5717 5714 5710 5706 5702 5697 5694 5690 5686 5681 5678 5674 5669 5665 5661 5657 5653 5649 5647 5643 5641 5638 5636 5634 5633 5632 5632 5632 5632 5632 5633 5634 5635
5729 5726 5722 5719 5716 5712 5709 5705 5700 5696 5691 5687 5683 5679 5675 5671 5667 5662 5658 5654 5651 5646 5643 5640 5637 5634 5631 5628 5626 5624 5623 5622 5622 5621 5621 5622 5622 5624
5725 5722 5718 5715 5711 5707 5703 5699 5695 5690 5686 5682 5678 5673 5669 5665 5661 5656 5652 5648 5645 5641 5637 5634 5631 5627 5625 5622 5619 5616 5614 5613 5612 5612 5611 5611 5612 5612
5721 5718 5714 5710 5707 5703 5699 5694 5690 5685 5681 5676 5672 5668 5664 5660 5655 5651 5647 5643 5639 5635 5631 5627 5624 5621 5618 5615 5612 5609 5606 5604 5603 5602 5601 5601 5602 5602
5718 5714 5710 5706 5702 5698 5694 5690 5685 5681 5676 5672 5668 5664 5660 5655 5651 5646 5642 5637 5633 5629 5625 5622 5618 5615 5611 5608 5605 5602 5599 5596 5594 5592 5592 5592 5592 5592
5714 5710 5706 5702 5698 5694 5690 5685 5681 5676 5672 5668 5664 5660 5655 5651 5646 5642 5638 5633 5629 5625 5620 5617 5613 5609 5605 5601 5598 5595 5592 5588 5585 5584 5583 5582 5582 5582
5711 5707 5702 5698 5694 5690 5685 5681 5676 5672 5668 5664 5660 5656 5651 5647 5643 5638 5634 5630 5625 5621 5616 5612 5607 5603 5600 5595 5591 5588 5584 5581 5578 5576 5575 5574 5574 5573
5708 5703 5699 5695 5690 5686 5681 5677 5673 5668 5664 5660 5656 5652 5648 5643 5639 5635 5630 5626 5621 5617 5612 5607 5602 5598 5594 5590 5586 5582 5578 5575 5572 5570 5569 5567 5566 5565
5705 5701 5696 5692 5687 5683 5678 5674 5669 5665 5661 5657 5653 5648 5644 5640 5635 5631 5626 5622 5617 5612 5607 5603 5599 5594 5590 5585 5581 5577 5573 5569 5566 5564 5562 5561 5559 5558
5701 5697 5693 5689 5684 5680 5675 5671 5666 5662 5658 5654 5650 5645 5640 5636 5632 5627 5622 5618 5613 5608 5604 5599 5595 5591 5586 5582 5577 5572 5568 5565 5562 5560 5557 5555 5553 5551
5698 5694 5690 5686 5681 5677 5673 5668 5664 5659 5655 5651 5646 5642 5637 5632 5628 5624 5619 5614 5610 5605 5601 5596 5592 5587 5582 5578 5574 5569 5565 5561 5558 5555 5552 5549 5547 5545
5694 5691 5687 5683 5679 5675 5670 5666 5661 5657 5653 5648 5643 5639 5634 5629 5625 5620 5616 5611 5607 5602 5598 5593 5589 5584 5579 5574 5570 5566 5562 5557 5554 5551 5548 5545 5542 5540
5691 5687 5683 5680 5676 5672 5668 5663 5659 5655 5650 5645 5641 5636 5631 5626 5622 5617 5613 5609 5604 5599 5595 5590 5586 5581 5577 5572 5568 5563 5559 5555 5551 5547 5544 5541 5537 5534
5687 5684 5680 5676 5672 5669 5665 5661 5656 5652 5647 5643 5638 5633 5628 5624 5619 5615 5610 5606 5601 5597 5593 5588 5584 5579 5574 5570 5565 5561 5556 5552 5548 5544 5541 5537 5533 5530